Time,TemperatureF,DewpointF,PressureIn,WindDirection,WindDirectionDegrees,WindSpeedMPH,WindSpeedGustMPH,Humidity,HourlyPrecipIn,Conditions,Clouds,dailyrainin,SoftwareType,DateUTC
2013-04-15 00:23:00,48.0,31.0,30.16,NNW,345,-999.0,-999.0,52,-99.99,,,-99.99,,2013-04-15 04:23:00,
2013-04-15 00:33:00,48.0,31.0,30.16,NNW,345,-999.0,-999.0,52,-99.99,,,-99.99,,2013-04-15 04:33:00,
2013-04-15 00:43:00,48.0,31.0,30.16,NNW,345,-999.0,-999.0,52,-99.99,,,-99.99,,2013-04-15 04:43:00,
2013-04-15 00:52:00,48.0,30.0,30.18,NNW,345,-999.0,-999.0,50,-99.99,,,-99.99,,2013-04-15 04:52:00,
2013-04-15 01:23:00,48.0,30.0,30.18,NNW,345,-999.0,-999.0,50,-99.99,,,-99.99,,2013-04-15 05:23:00,
2013-04-15 01:33:00,48.0,30.0,30.18,NNW,345,-999.0,-999.0,50,-99.99,,,-99.99,,2013-04-15 05:33:00,
2013-04-15 01:42:00,48.0,30.0,30.18,NNW,345,-999.0,-999.0,50,-99.99,,,-99.99,,2013-04-15 05:42:00,
2013-04-15 01:52:00,47.0,29.0,30.18,NNW,345,-999.0,-999.0,48,-99.99,,,-99.99,,2013-04-15 05:52:00,
2013-04-15 02:34:00,47.0,29.0,30.18,NNW,345,-999.0,-999.0,48,-99.99,,,-99.99,,2013-04-15 06:34:00,
2013-04-15 02:42:00,47.0,29.0,30.18,NNW,345,-999.0,-999.0,48,-99.99,,,-99.99,,2013-04-15 06:42:00,
2013-04-15 02:52:00,46.0,26.0,30.20,NNW,345,-999.0,-999.0,45,-99.99,,,-99.99,,2013-04-15 06:52:00,
2013-04-15 03:42:00,46.0,26.0,30.20,NNW,345,-999.0,-999.0,45,-99.99,,,-99.99,,2013-04-15 07:42:00,
2013-04-15 03:43:00,46.0,26.0,30.20,NNW,345,-999.0,-999.0,45,-99.99,,,-99.99,,2013-04-15 07:43:00,
2013-04-15 03:52:00,45.0,27.0,30.23,NNW,345,-999.0,-999.0,48,-99.99,,,-99.99,,2013-04-15 07:52:00,
2013-04-15 04:22:00,45.0,27.0,30.23,NNW,345,-999.0,-999.0,48,-99.99,,,-99.99,,2013-04-15 08:22:00,
2013-04-15 04:34:00,45.0,27.0,30.23,NNW,345,-999.0,-999.0,48,-99.99,,,-99.99,,2013-04-15 08:34:00,
2013-04-15 04:43:00,45.0,27.0,30.23,NNW,345,-999.0,-999.0,48,-99.99,,,-99.99,,2013-04-15 08:43:00,
2013-04-15 04:52:00,43.0,29.0,30.25,NNW,345,-999.0,-999.0,58,-99.99,,,-99.99,,2013-04-15 08:52:00,
2013-04-15 05:23:00,43.0,29.0,30.25,NNW,345,-999.0,-999.0,58,-99.99,,,-99.99,,2013-04-15 09:23:00,
2013-04-15 05:33:00,43.0,29.0,30.25,NNW,345,-999.0,-999.0,58,-99.99,,,-99.99,,2013-04-15 09:33:00,
2013-04-15 05:43:00,43.0,29.0,30.25,NNW,345,-999.0,-999.0,58,-99.99,,,-99.99,,2013-04-15 09:43:00,
2013-04-15 05:52:00,42.0,31.0,30.27,NNW,345,-999.0,-999.0,64,-99.99,,,-99.99,,2013-04-15 09:52:00,
2013-04-15 06:23:00,42.0,31.0,30.27,NNW,345,-999.0,-999.0,64,-99.99,,,-99.99,,2013-04-15 10:23:00,
2013-04-15 06:33:00,42.0,31.0,30.27,NNW,345,-999.0,-999.0,64,-99.99,,,-99.99,,2013-04-15 10:33:00,
2013-04-15 06:42:00,42.0,31.0,30.27,NNW,345,-999.0,-999.0,64,-99.99,,,-99.99,,2013-04-15 10:42:00,
2013-04-15 06:52:00,41.0,31.0,30.28,NNW,345,-999.0,-999.0,68,-99.99,,,-99.99,,2013-04-15 10:52:00,
2013-04-15 07:23:00,41.0,31.0,30.28,NNW,345,-999.0,-999.0,68,-99.99,,,-99.99,,2013-04-15 11:23:00,
2013-04-15 07:33:00,41.0,31.0,30.28,NNW,345,-999.0,-999.0,68,-99.99,,,-99.99,,2013-04-15 11:33:00,
2013-04-15 07:43:00,41.0,31.0,30.28,NNW,345,-999.0,-999.0,68,-99.99,,,-99.99,,2013-04-15 11:43:00,
2013-04-15 07:52:00,45.0,34.0,30.31,NNW,345,-999.0,-999.0,64,-99.99,,,-99.99,,2013-04-15 11:52:00,
2013-04-15 08:23:00,45.0,34.0,30.31,NNW,345,-999.0,-999.0,64,-99.99,,,-99.99,,2013-04-15 12:23:00,
2013-04-15 08:34:00,45.0,34.0,30.31,NNW,345,-999.0,-999.0,64,-99.99,,,-99.99,,2013-04-15 12:34:00,
2013-04-15 08:43:00,45.0,34.0,30.31,NNW,345,-999.0,-999.0,64,-99.99,,,-99.99,,2013-04-15 12:43:00,
2013-04-15 08:52:00,47.0,28.0,30.33,NNW,345,-999.0,-999.0,47,-99.99,,,-99.99,,2013-04-15 12:52:00,
2013-04-15 09:23:00,47.0,28.0,30.33,NNW,345,-999.0,-999.0,47,-99.99,,,-99.99,,2013-04-15 13:23:00,
2013-04-15 09:34:00,47.0,28.0,30.33,NNW,345,-999.0,-999.0,47,-99.99,,,-99.99,,2013-04-15 13:34:00,
2013-04-15 09:43:00,47.0,28.0,30.33,NNW,345,-999.0,-999.0,47,-99.99,,,-99.99,,2013-04-15 13:43:00,
2013-04-15 10:52:00,52.0,25.0,30.32,NNW,345,-999.0,-999.0,35,-99.99,,,-99.99,,2013-04-15 14:52:00,
2013-04-15 11:24:00,52.0,25.0,30.32,NNW,345,-999.0,-999.0,35,-99.99,,,-99.99,,2013-04-15 15:24:00,
2013-04-15 11:44:00,52.0,25.0,30.32,NNW,345,-999.0,-999.0,35,-99.99,,,-99.99,,2013-04-15 15:44:00,
2013-04-15 11:52:00,55.0,27.0,30.30,NNW,345,-999.0,-999.0,34,-99.99,,,-99.99,,2013-04-15 15:52:00,
2013-04-15 12:25:00,55.0,27.0,30.30,NNW,345,-999.0,-999.0,34,-99.99,,,-99.99,,2013-04-15 16:25:00,
2013-04-15 12:34:00,55.0,27.0,30.30,NNW,345,-999.0,-999.0,34,-99.99,,,-99.99,,2013-04-15 16:34:00,
2013-04-15 12:44:00,55.0,27.0,30.30,NNW,345,-999.0,-999.0,34,-99.99,,,-99.99,,2013-04-15 16:44:00,
2013-04-15 12:52:00,56.0,27.0,30.29,NNW,345,-999.0,-999.0,33,-99.99,,,-99.99,,2013-04-15 16:52:00,
2013-04-15 13:33:00,56.0,27.0,30.29,NNW,345,-999.0,-999.0,33,-99.99,,,-99.99,,2013-04-15 17:33:00,
2013-04-15 13:43:00,56.0,27.0,30.29,NNW,345,-999.0,-999.0,33,-99.99,,,-99.99,,2013-04-15 17:43:00,
2013-04-15 13:52:00,58.0,29.0,30.28,NNW,345,-999.0,-999.0,34,-99.99,,,-99.99,,2013-04-15 17:52:00,
2013-04-15 14:33:00,58.0,29.0,30.28,NNW,345,-999.0,-999.0,34,-99.99,,,-99.99,,2013-04-15 18:33:00,
2013-04-15 14:42:00,58.0,29.0,30.28,NNW,345,-999.0,-999.0,34,-99.99,,,-99.99,,2013-04-15 18:42:00,
2013-04-15 14:52:00,59.0,30.0,30.27,ENE,70,-999.0,-999.0,33,-99.99,,,-99.99,,2013-04-15 18:52:00,
2013-04-15 15:22:00,59.0,30.0,30.27,ENE,70,-999.0,-999.0,33,-99.99,,,-99.99,,2013-04-15 19:22:00,
2013-04-15 15:52:00,57.0,32.0,30.26,ENE,70,-999.0,-999.0,38,-99.99,,,-99.99,,2013-04-15 19:52:00,
2013-04-15 16:22:00,57.0,32.0,30.26,ENE,70,-999.0,-999.0,38,-99.99,,,-99.99,,2013-04-15 20:22:00,
2013-04-15 16:32:00,57.0,32.0,30.26,ENE,70,-999.0,-999.0,38,-99.99,,,-99.99,,2013-04-15 20:32:00,
2013-04-15 16:42:00,57.0,32.0,30.26,ENE,70,-999.0,-999.0,38,-99.99,,,-99.99,,2013-04-15 20:42:00,
2013-04-15 16:52:00,58.0,33.0,30.26,East,99,-999.0,-999.0,39,-99.99,,,-99.99,,2013-04-15 20:52:00,
2013-04-15 17:22:00,58.0,33.0,30.26,East,99,-999.0,-999.0,39,-99.99,,,-99.99,,2013-04-15 21:22:00,
2013-04-15 17:33:00,58.0,33.0,30.26,East,99,-999.0,-999.0,39,-99.99,,,-99.99,,2013-04-15 21:33:00,
2013-04-15 17:43:00,58.0,33.0,30.26,East,99,-999.0,-999.0,39,-99.99,,,-99.99,,2013-04-15 21:43:00,
2013-04-15 17:52:00,56.0,31.0,30.27,East,99,-999.0,-999.0,39,-99.99,,,-99.99,,2013-04-15 21:52:00,
2013-04-15 18:33:00,56.0,31.0,30.27,East,99,-999.0,-999.0,39,-99.99,,,-99.99,,2013-04-15 22:33:00,
2013-04-15 18:42:00,56.0,31.0,30.27,East,99,-999.0,-999.0,39,-99.99,,,-99.99,,2013-04-15 22:42:00,
2013-04-15 18:52:00,54.0,30.0,30.29,East,99,-999.0,-999.0,40,-99.99,,,-99.99,,2013-04-15 22:52:00,
2013-04-15 19:22:00,54.0,30.0,30.29,East,99,-999.0,-999.0,40,-99.99,,,-99.99,,2013-04-15 23:22:00,
2013-04-15 19:32:00,54.0,30.0,30.29,East,99,-999.0,-999.0,40,-99.99,,,-99.99,,2013-04-15 23:32:00,
2013-04-15 19:42:00,54.0,30.0,30.29,East,99,-999.0,-999.0,40,-99.99,,,-99.99,,2013-04-15 23:42:00,
2013-04-15 19:52:00,53.0,29.0,30.31,East,99,-999.0,-999.0,40,-99.99,,,-99.99,,2013-04-15 23:52:00,
2013-04-15 20:32:00,53.0,29.0,30.31,East,99,-999.0,-999.0,40,-99.99,,,-99.99,,2013-04-16 00:32:00,
2013-04-15 20:42:00,53.0,29.0,30.31,East,99,-999.0,-999.0,40,-99.99,,,-99.99,,2013-04-16 00:42:00,
2013-04-15 20:52:00,51.0,30.0,30.32,East,99,-999.0,-999.0,44,-99.99,,,-99.99,,2013-04-16 00:52:00,
2013-04-15 21:32:00,51.0,30.0,30.32,East,99,-999.0,-999.0,44,-99.99,,,-99.99,,2013-04-16 01:32:00,
2013-04-15 21:42:00,51.0,30.0,30.32,East,99,-999.0,-999.0,44,-99.99,,,-99.99,,2013-04-16 01:42:00,
2013-04-15 21:52:00,50.0,32.0,30.33,East,99,-999.0,-999.0,49,-99.99,,,-99.99,,2013-04-16 01:52:00,
2013-04-15 22:22:00,50.0,32.0,30.33,East,99,-999.0,-999.0,49,-99.99,,,-99.99,,2013-04-16 02:22:00,
2013-04-15 22:32:00,50.0,32.0,30.33,East,99,-999.0,-999.0,49,-99.99,,,-99.99,,2013-04-16 02:32:00,
2013-04-15 22:42:00,50.0,32.0,30.33,East,99,-999.0,-999.0,49,-99.99,,,-99.99,,2013-04-16 02:42:00,
2013-04-15 22:52:00,49.0,34.0,30.33,East,99,-999.0,-999.0,55,-99.99,,,-99.99,,2013-04-16 02:52:00,
2013-04-15 23:22:00,49.0,34.0,30.33,East,99,-999.0,-999.0,55,-99.99,,,-99.99,,2013-04-16 03:22:00,
2013-04-15 23:33:00,49.0,34.0,30.33,East,99,-999.0,-999.0,55,-99.99,,,-99.99,,2013-04-16 03:33:00,
2013-04-15 23:43:00,49.0,34.0,30.33,East,99,-999.0,-999.0,55,-99.99,,,-99.99,,2013-04-16 03:43:00,
2013-04-15 23:52:00,48.0,36.0,30.34,East,99,-999.0,-999.0,62,-99.99,,,-99.99,,2013-04-16 03:52:00,